TimeMST,TemperatureF,Dew PointF,Humidity,Sea Level PressureIn,VisibilityMPH,Wind Direction,Wind SpeedMPH,Gust SpeedMPH,PrecipitationIn,Events,Conditions,WindDirDegrees,DateUTC
12:53 AM,28.0,19.9,72,30.43,10.0,Calm,Calm,-,N/A,,Clear,0,2013-11-26 07:53:00
1:53 AM,21.9,18.0,85,30.43,10.0,Calm,Calm,-,N/A,,Clear,0,2013-11-26 08:53:00
2:53 AM,25.0,19.9,81,30.42,10.0,SW,4.6,-,N/A,,Clear,230,2013-11-26 09:53:00
3:53 AM,21.0,18.0,88,30.44,10.0,Calm,Calm,-,N/A,,Clear,0,2013-11-26 10:53:00
4:53 AM,21.0,18.0,88,30.44,10.0,ENE,4.6,-,N/A,,Clear,70,2013-11-26 11:53:00
5:53 AM,21.0,17.1,85,30.43,10.0,Calm,Calm,-,N/A,,Clear,0,2013-11-26 12:53:00
6:53 AM,19.0,16.0,88,30.41,10.0,East,4.6,-,N/A,,Clear,90,2013-11-26 13:53:00
7:53 AM,21.9,18.0,85,30.41,10.0,Calm,Calm,-,N/A,,Clear,0,2013-11-26 14:53:00
8:53 AM,30.0,25.0,82,30.38,10.0,South,3.5,-,N/A,,Clear,190,2013-11-26 15:53:00
9:53 AM,42.1,24.1,49,30.32,10.0,South,11.5,-,N/A,,Clear,190,2013-11-26 16:53:00
10:53 AM,46.9,23.0,39,30.30,10.0,SSW,13.8,-,N/A,,Clear,210,2013-11-26 17:53:00
11:53 AM,51.1,24.1,35,30.26,10.0,SSW,12.7,-,N/A,,Clear,200,2013-11-26 18:53:00
12:53 PM,54.0,23.0,30,30.21,10.0,SSW,13.8,-,N/A,,Clear,200,2013-11-26 19:53:00
1:53 PM,55.0,23.0,29,30.18,10.0,SSW,16.1,-,N/A,,Clear,200,2013-11-26 20:53:00
2:53 PM,54.0,21.9,29,30.16,10.0,SW,13.8,-,N/A,,Clear,230,2013-11-26 21:53:00
3:53 PM,48.9,21.9,35,30.16,10.0,SW,16.1,-,N/A,,Clear,220,2013-11-26 22:53:00
4:53 PM,46.0,21.9,39,30.15,10.0,SSW,19.6,24.2,N/A,,Clear,200,2013-11-26 23:53:00
5:53 PM,45.0,23.0,42,30.15,10.0,SSW,17.3,-,N/A,,Clear,210,2013-11-27 00:53:00
6:53 PM,45.0,23.0,42,30.14,10.0,SSW,17.3,-,N/A,,Clear,210,2013-11-27 01:53:00
7:53 PM,46.9,21.9,37,30.11,10.0,SSW,17.3,-,N/A,,Clear,210,2013-11-27 02:53:00
8:53 PM,45.0,23.0,42,30.09,10.0,SSW,12.7,-,N/A,,Clear,200,2013-11-27 03:53:00
9:53 PM,46.9,23.0,39,30.04,10.0,SW,13.8,-,N/A,,Clear,220,2013-11-27 04:53:00
10:53 PM,50.0,23.0,35,30.02,10.0,SW,16.1,-,N/A,,Clear,220,2013-11-27 05:53:00
11:53 PM,50.0,21.9,33,30.01,10.0,SW,15.0,-,N/A,,Clear,230,2013-11-27 06:53:00